Starlink 32006

operational
NORAD ID: 60029 Int'l Des: 2024-111 Owner: SPXS Country: US Constellation: starlink
LEOCIRCULAR

About Starlink 32006

Description loading...

Live Position

Loading 3D Globe...

Upcoming Passes

Altitude History

Altitude vs Time

uPlot chart will show altitude changes over time

Two-Line Element Set

1 60029U 24111P 25259.03900116 .00000180 00000-0 18201-4 0 9994
2 60029 53.1600 166.8653 0001088 70.9428 289.1691 15.30194150 72291
Epoch: Sep 16, 2025 • Age: 25 hours

Current Status

Altitude 493.4 km
Velocity 7.62 km/s
Sub-Earth Point -50.55°S, 27.39°E
Launch Date Jun 8, 2024
Age 1.2 years
Type internet

Technical Details

Classification Payload
Mass 730.00 kg
Dry Mass 700.00 kg
Total Mass 730.00 kg
Length 0.30 m
Diameter 4.10 m
Span 29.00 m
Shape Box + pan
Manufacturer SPXS
Bus Type Starlink V2M
Phase Status In Orbit
Owner/State SPXS/US

Large Constellations

Loading constellations...